#Datum;Uhrzeit;WR;Pac;DaySum;Status;WR;Pac;DaySum;Status;Pdc1;Udc;Temp;WR;Pac;DaySum;Status;Pdc1;Udc;Temp;WR;Pac;DaySum;Status;Pdc1;Udc;Temp;WR;Pac;DaySum;Status;Pdc1;Pdc2;Udc1;Udc2;Temp;WR;Pac;DaySum;Status;Pdc1;Pdc2;Udc1;Udc2;Temp;WR;Pac;DaySum;Status;Pdc1;Udc;Temp;WR;Pac;DaySum;Status;Pdc1;Udc;Temp;WR;Pac;DaySum;Status;Pdc1;Udc;Temp
12.01.19;23:55:00;1;538;14035;0;2;0;131;0;0;0;0;3;0;230;0;0;0;0;4;0;95;0;0;0;0;5;0;219;0;0;0;0;0;0;6;0;19;0;0;0;0;0;0;7;0;1055;0;0;0;0;8;0;1186;0;0;0;0;9;0;522;0;0;0;0
12.01.19;23:50:00;1;1068;13990;0;2;0;131;0;0;0;0;3;0;230;0;0;0;0;4;0;95;0;0;0;0;5;0;219;0;0;0;0;0;0;6;0;19;0;0;0;0;0;0;7;0;1055;0;0;0;0;8;0;1186;0;0;0;0;9;0;522;0;0;0;0
12.01.19;23:45:00;1;534;13918;0;2;0;131;0;0;0;0;3;0;230;0;0;0;0;4;0;95;0;0;0;0;5;0;219;0;0;0;0;0;0;6;0;19;0;0;0;0;0;0;7;0;1055;0;0;0;0;8;0;1186;0;0;0;0;9;0;522;0;0;0;0
12.01.19;23:40:00;1;526;13874;0;2;0;131;0;0;0;0;3;0;230;0;0;0;0;4;0;95;0;0;0;0;5;0;219;0;0;0;0;0;0;6;0;19;0;0;0;0;0;0;7;0;1055;0;0;0;0;8;0;1186;0;0;0;0;9;0;522;0;0;0;0
12.01.19;23:35:00;1;549;13830;0;2;0;131;0;0;0;0;3;0;230;0;0;0;0;4;0;95;0;0;0;0;5;0;219;0;0;0;0;0;0;6;0;19;0;0;0;0;0;0;7;0;1055;0;0;0;0;8;0;1186;0;0;0;0;9;0;522;0;0;0;0
12.01.19;23:30:00;1;571;13784;0;2;0;131;0;0;0;0;3;0;230;0;0;0;0;4;0;95;0;0;0;0;5;0;219;0;0;0;0;0;0;6;0;19;0;0;0;0;0;0;7;0;1055;0;0;0;0;8;0;1186;0;0;0;0;9;0;522;0;0;0;0
12.01.19;23:25:00;1;578;13736;0;2;0;131;0;0;0;0;3;0;230;0;0;0;0;4;0;95;0;0;0;0;5;0;219;0;0;0;0;0;0;6;0;19;0;0;0;0;0;0;7;0;1055;0;0;0;0;8;0;1186;0;0;0;0;9;0;522;0;0;0;0
12.01.19;23:20:00;1;544;13688;0;2;0;131;0;0;0;0;3;0;230;0;0;0;0;4;0;95;0;0;0;0;5;0;219;0;0;0;0;0;0;6;0;19;0;0;0;0;0;0;7;0;1055;0;0;0;0;8;0;1186;0;0;0;0;9;0;522;0;0;0;0
12.01.19;23:15:00;1;782;13642;0;2;0;131;0;0;0;0;3;0;230;0;0;0;0;4;0;95;0;0;0;0;5;0;219;0;0;0;0;0;0;6;0;19;0;0;0;0;0;0;7;0;1055;0;0;0;0;8;0;1186;0;0;0;0;9;0;522;0;0;0;0
12.01.19;23:10:00;1;594;13566;0;2;0;131;0;0;0;0;3;0;230;0;0;0;0;4;0;95;0;0;0;0;5;0;219;0;0;0;0;0;0;6;0;19;0;0;0;0;0;0;7;0;1055;0;0;0;0;8;0;1186;0;0;0;0;9;0;522;0;0;0;0
12.01.19;23:05:00;1;608;13516;0;2;0;131;0;0;0;0;3;0;230;0;0;0;0;4;0;95;0;0;0;0;5;0;219;0;0;0;0;0;0;6;0;19;0;0;0;0;0;0;7;0;1055;0;0;0;0;8;0;1186;0;0;0;0;9;0;522;0;0;0;0
12.01.19;23:00:00;1;607;13466;0;2;0;131;0;0;0;0;3;0;230;0;0;0;0;4;0;95;0;0;0;0;5;0;219;0;0;0;0;0;0;6;0;19;0;0;0;0;0;0;7;0;1055;0;0;0;0;8;0;1186;0;0;0;0;9;0;522;0;0;0;0
12.01.19;22:55:00;1;601;13415;0;2;0;131;0;0;0;0;3;0;230;0;0;0;0;4;0;95;0;0;0;0;5;0;219;2;0;0;0;0;0;6;0;19;2;0;0;0;0;0;7;0;1055;0;0;0;0;8;0;1186;0;0;0;0;9;0;522;0;0;0;0
12.01.19;22:50:00;1;594;13365;0;2;0;131;0;0;0;0;3;0;230;0;0;0;0;4;0;95;0;0;0;0;5;0;219;2;0;0;0;0;0;6;0;19;2;0;0;0;0;0;7;0;1055;0;0;0;0;8;0;1186;0;0;0;0;9;0;522;0;0;0;0
12.01.19;22:45:00;1;599;13316;0;2;0;131;0;0;0;0;3;0;230;0;0;0;0;4;0;95;0;0;0;0;5;0;219;2;0;0;0;0;0;6;0;19;2;0;0;0;0;0;7;0;1055;0;0;0;0;8;0;1186;0;0;0;0;9;0;522;0;0;0;0
12.01.19;22:40:00;1;907;13266;0;2;0;131;0;0;0;0;3;0;230;0;0;0;0;4;0;95;0;0;0;0;5;0;219;2;0;0;0;0;0;6;0;19;2;0;0;0;0;0;7;0;1055;0;0;0;0;8;0;1186;0;0;0;0;9;0;522;0;0;0;0
12.01.19;22:35:00;1;557;13194;0;2;0;131;0;0;0;0;3;0;230;0;0;0;0;4;0;95;0;0;0;0;5;0;219;2;0;0;0;0;0;6;0;19;2;0;0;0;0;0;7;0;1055;0;0;0;0;8;0;1186;0;0;0;0;9;0;522;0;0;0;0
12.01.19;22:30:00;1;595;13147;0;2;0;131;0;0;0;0;3;0;230;0;0;0;0;4;0;95;0;0;0;0;5;0;219;2;0;0;0;0;0;6;0;19;2;0;0;0;0;0;7;0;1055;0;0;0;0;8;0;1186;0;0;0;0;9;0;522;0;0;0;0
12.01.19;22:25:00;1;595;13097;0;2;0;131;0;0;0;0;3;0;230;0;0;0;0;4;0;95;0;0;0;0;5;0;219;2;0;0;0;0;0;6;0;19;2;0;0;0;0;0;7;0;1055;0;0;0;0;8;0;1186;0;0;0;0;9;0;522;0;0;0;0
12.01.19;22:20:00;1;1725;13042;0;2;0;131;0;0;0;0;3;0;230;0;0;0;0;4;0;95;0;0;0;0;5;0;219;2;0;0;0;0;0;6;0;19;2;0;0;0;0;0;7;0;1055;0;0;0;0;8;0;1186;0;0;0;0;9;0;522;0;0;0;0
12.01.19;22:15:00;1;511;12923;0;2;0;131;0;0;0;0;3;0;230;0;0;0;0;4;0;95;0;0;0;0;5;0;219;2;0;0;0;0;0;6;0;19;2;0;0;0;0;0;7;0;1055;0;0;0;0;8;0;1186;0;0;0;0;9;0;522;0;0;0;0
12.01.19;22:10:00;1;521;12882;0;2;0;131;0;0;0;0;3;0;230;0;0;0;0;4;0;95;0;0;0;0;5;0;219;2;0;0;0;0;0;6;0;19;2;0;0;0;0;0;7;0;1055;0;0;0;0;8;0;1186;0;0;0;0;9;0;522;0;0;0;0
12.01.19;22:05:00;1;442;12842;0;2;0;131;0;0;0;0;3;0;230;0;0;0;0;4;0;95;0;0;0;0;5;0;219;2;0;0;0;0;0;6;0;19;2;0;0;0;0;0;7;0;1055;0;0;0;0;8;0;1186;0;0;0;0;9;0;522;0;0;0;0
12.01.19;22:00:00;1;214;12797;0;2;0;131;0;0;0;0;3;0;230;0;0;0;0;4;0;95;0;0;0;0;5;0;219;2;0;0;0;0;0;6;0;19;2;0;0;0;0;0;7;0;1055;0;0;0;0;8;0;1186;0;0;0;0;9;0;522;0;0;0;0
12.01.19;21:55:00;1;214;12779;0;2;0;131;0;0;0;0;3;0;230;0;0;0;0;4;0;95;0;0;0;0;5;0;219;2;0;0;0;0;0;6;0;19;2;0;0;0;0;0;7;0;1055;0;0;0;0;8;0;1186;0;0;0;0;9;0;522;0;0;0;0
12.01.19;21:50:00;1;214;12761;0;2;0;131;0;0;0;0;3;0;230;0;0;0;0;4;0;95;0;0;0;0;5;0;219;2;0;0;0;0;0;6;0;19;2;0;0;0;0;0;7;0;1055;0;0;0;0;8;0;1186;0;0;0;0;9;0;522;0;0;0;0
12.01.19;21:45:00;1;214;12743;0;2;0;131;0;0;0;0;3;0;230;0;0;0;0;4;0;95;0;0;0;0;5;0;219;2;0;0;0;0;0;6;0;19;2;0;0;0;0;0;7;0;1055;0;0;0;0;8;0;1186;0;0;0;0;9;0;522;0;0;0;0
12.01.19;21:40:00;1;214;12725;0;2;0;131;0;0;0;0;3;0;230;0;0;0;0;4;0;95;0;0;0;0;5;0;219;2;0;0;0;0;0;6;0;19;2;0;0;0;0;0;7;0;1055;0;0;0;0;8;0;1186;0;0;0;0;9;0;522;0;0;0;0
12.01.19;21:35:00;1;225;12707;0;2;0;131;0;0;0;0;3;0;230;0;0;0;0;4;0;95;0;0;0;0;5;0;219;2;0;0;0;0;0;6;0;19;2;0;0;0;0;0;7;0;1055;0;0;0;0;8;0;1186;0;0;0;0;9;0;522;0;0;0;0
12.01.19;21:30:00;1;608;12688;0;2;0;131;0;0;0;0;3;0;230;0;0;0;0;4;0;95;0;0;0;0;5;0;219;2;0;0;0;0;0;6;0;19;2;0;0;0;0;0;7;0;1055;0;0;0;0;8;0;1186;0;0;0;0;9;0;522;0;0;0;0
12.01.19;21:25:00;1;256;12641;0;2;0;131;0;0;0;0;3;0;230;0;0;0;0;4;0;95;0;0;0;0;5;0;219;2;0;0;0;0;0;6;0;19;2;0;0;0;0;0;7;0;1055;0;0;0;0;8;0;1186;0;0;0;0;9;0;522;0;0;0;0
12.01.19;21:20:00;1;242;12619;0;2;0;131;0;0;0;0;3;0;230;0;0;0;0;4;0;95;0;0;0;0;5;0;219;2;0;0;0;0;0;6;0;19;2;0;0;0;0;0;7;0;1055;0;0;0;0;8;0;1186;0;0;0;0;9;0;522;0;0;0;0
12.01.19;21:15:00;1;214;12599;0;2;0;131;0;0;0;0;3;0;230;0;0;0;0;4;0;95;0;0;0;0;5;0;219;2;0;0;0;0;0;6;0;19;2;0;0;0;0;0;7;0;1055;0;0;0;0;8;0;1186;0;0;0;0;9;0;522;0;0;0;0
12.01.19;21:10:00;1;221;12581;0;2;0;131;0;0;0;0;3;0;230;0;0;0;0;4;0;95;0;0;0;0;5;0;219;2;0;0;0;0;0;6;0;19;2;0;0;0;0;0;7;0;1055;0;0;0;0;8;0;1186;0;0;0;0;9;0;522;0;0;0;0
12.01.19;21:05:00;1;279;12562;0;2;0;131;0;0;0;0;3;0;230;0;0;0;0;4;0;95;0;0;0;0;5;0;219;2;0;0;0;0;0;6;0;19;2;0;0;0;0;0;7;0;1055;0;0;0;0;8;0;1186;0;0;0;0;9;0;522;0;0;0;0
12.01.19;21:00:00;1;282;12538;0;2;0;131;0;0;0;0;3;0;230;0;0;0;0;4;0;95;0;0;0;0;5;0;219;2;0;0;0;0;0;6;0;19;2;0;0;0;0;0;7;0;1055;0;0;0;0;8;0;1186;0;0;0;0;9;0;522;0;0;0;0
12.01.19;20:55:00;1;479;12515;0;2;0;131;0;0;0;0;3;0;230;0;0;0;0;4;0;95;0;0;0;0;5;0;219;2;0;0;0;0;0;6;0;19;2;0;0;0;0;0;7;0;1055;0;0;0;0;8;0;1186;0;0;0;0;9;0;522;0;0;0;0
12.01.19;20:50:00;1;280;12464;0;2;0;131;0;0;0;0;3;0;230;0;0;0;0;4;0;95;0;0;0;0;5;0;219;2;0;0;0;0;0;6;0;19;2;0;0;0;0;0;7;0;1055;0;0;0;0;8;0;1186;0;0;0;0;9;0;522;0;0;0;0
12.01.19;20:45:00;1;281;12441;0;2;0;131;0;0;0;0;3;0;230;0;0;0;0;4;0;95;0;0;0;0;5;0;219;2;0;0;0;0;0;6;0;19;2;0;0;0;0;0;7;0;1055;0;0;0;0;8;0;1186;0;0;0;0;9;0;522;0;0;0;0
12.01.19;20:40:00;1;283;12418;0;2;0;131;0;0;0;0;3;0;230;0;0;0;0;4;0;95;0;0;0;0;5;0;219;2;0;0;0;0;0;6;0;19;2;0;0;0;0;0;7;0;1055;0;0;0;0;8;0;1186;0;0;0;0;9;0;522;0;0;0;0
12.01.19;20:35:00;1;260;12394;0;2;0;131;0;0;0;0;3;0;230;0;0;0;0;4;0;95;0;0;0;0;5;0;219;2;0;0;0;0;0;6;0;19;2;0;0;0;0;0;7;0;1055;0;0;0;0;8;0;1186;0;0;0;0;9;0;522;0;0;0;0
12.01.19;20:30:00;1;258;12372;0;2;0;131;0;0;0;0;3;0;230;0;0;0;0;4;0;95;0;0;0;0;5;0;219;2;0;0;0;0;0;6;0;19;2;0;0;0;0;0;7;0;1055;0;0;0;0;8;0;1186;0;0;0;0;9;0;522;0;0;0;0
12.01.19;20:25:00;1;259;12351;0;2;0;131;0;0;0;0;3;0;230;0;0;0;0;4;0;95;0;0;0;0;5;0;219;2;0;0;0;0;0;6;0;19;2;0;0;0;0;0;7;0;1055;0;0;0;0;8;0;1186;0;0;0;0;9;0;522;0;0;0;0
12.01.19;20:20:00;1;283;12329;0;2;0;131;0;0;0;0;3;0;230;0;0;0;0;4;0;95;0;0;0;0;5;0;219;2;0;0;0;0;0;6;0;19;2;0;0;0;0;0;7;0;1055;0;0;0;0;8;0;1186;0;0;0;0;9;0;522;0;0;0;0
12.01.19;20:15:00;1;802;12308;0;2;0;131;0;0;0;0;3;0;230;0;0;0;0;4;0;95;0;0;0;0;5;0;219;2;0;0;0;0;0;6;0;19;2;0;0;0;0;0;7;0;1055;0;0;0;0;8;0;1186;0;0;0;0;9;0;522;0;0;0;0
12.01.19;20:10:00;1;215;12264;0;2;0;131;0;0;0;0;3;0;230;0;0;0;0;4;0;95;0;0;0;0;5;0;219;2;0;0;0;0;0;6;0;19;2;0;0;0;0;0;7;0;1055;0;0;0;0;8;0;1186;0;0;0;0;9;0;522;0;0;0;0
12.01.19;20:05:00;1;215;12246;0;2;0;131;0;0;0;0;3;0;230;0;0;0;0;4;0;95;0;0;0;0;5;0;219;2;0;0;0;0;0;6;0;19;2;0;0;0;0;0;7;0;1055;0;0;0;0;8;0;1186;0;0;0;0;9;0;522;0;0;0;0
12.01.19;20:00:00;1;216;12228;0;2;0;131;0;0;0;0;3;0;230;0;0;0;0;4;0;95;0;0;0;0;5;0;219;2;0;0;0;0;0;6;0;19;2;0;0;0;0;0;7;0;1055;0;0;0;0;8;0;1186;0;0;0;0;9;0;522;0;0;0;0
12.01.19;19:55:00;1;226;12210;0;2;0;131;0;0;0;0;3;0;230;0;0;0;0;4;0;95;0;0;0;0;5;0;219;2;0;0;0;0;0;6;0;19;2;0;0;0;0;0;7;0;1055;0;0;0;0;8;0;1186;0;0;0;0;9;0;522;0;0;0;0
12.01.19;19:50:00;1;221;12191;0;2;0;131;0;0;0;0;3;0;230;0;0;0;0;4;0;95;0;0;0;0;5;0;219;2;0;0;0;0;0;6;0;19;2;0;0;0;0;0;7;0;1055;0;0;0;0;8;0;1186;0;0;0;0;9;0;522;0;0;0;0
12.01.19;19:45:00;1;215;12172;0;2;0;131;0;0;0;0;3;0;230;0;0;0;0;4;0;95;0;0;0;0;5;0;219;2;0;0;0;0;0;6;0;19;2;0;0;0;0;0;7;0;1055;0;0;0;0;8;0;1186;0;0;0;0;9;0;522;0;0;0;0
12.01.19;19:40:00;1;216;12154;0;2;0;131;0;0;0;0;3;0;230;0;0;0;0;4;0;95;0;0;0;0;5;0;219;2;0;0;0;0;0;6;0;19;2;0;0;0;0;0;7;0;1055;0;0;0;0;8;0;1186;0;0;0;0;9;0;522;0;0;0;0
12.01.19;19:35:00;1;630;12136;0;2;0;131;0;0;0;0;3;0;230;0;0;0;0;4;0;95;0;0;0;0;5;0;219;2;0;0;0;0;0;6;0;19;2;0;0;0;0;0;7;0;1055;0;0;0;0;8;0;1186;0;0;0;0;9;0;522;0;0;0;0
12.01.19;19:30:00;1;256;12092;0;2;0;131;0;0;0;0;3;0;230;0;0;0;0;4;0;95;0;0;0;0;5;0;219;2;0;0;0;0;0;6;0;19;2;0;0;0;0;0;7;0;1055;0;0;0;0;8;0;1186;0;0;0;0;9;0;522;0;0;0;0
12.01.19;19:25:00;1;258;12070;0;2;0;131;0;0;0;0;3;0;230;0;0;0;0;4;0;95;0;0;0;0;5;0;219;2;0;0;0;0;0;6;0;19;2;0;0;0;0;0;7;0;1055;0;0;0;0;8;0;1186;0;0;0;0;9;0;522;0;0;0;0
12.01.19;19:20:00;1;255;12049;0;2;0;131;0;0;0;0;3;0;230;0;0;0;0;4;0;95;0;0;0;0;5;0;219;2;0;0;0;0;0;6;0;19;2;0;0;0;0;0;7;0;1055;0;0;0;0;8;0;1186;0;0;0;0;9;0;522;0;0;0;0
12.01.19;19:15:00;1;215;12027;0;2;0;131;0;0;0;0;3;0;230;0;0;0;0;4;0;95;0;0;0;0;5;0;219;2;0;0;0;0;0;6;0;19;2;0;0;0;0;0;7;0;1055;0;0;0;0;8;0;1186;0;0;0;0;9;0;522;0;0;0;0
12.01.19;19:10:00;1;215;12009;0;2;0;131;0;0;0;0;3;0;230;0;0;0;0;4;0;95;0;0;0;0;5;0;219;2;0;0;0;0;0;6;0;19;2;0;0;0;0;0;7;0;1055;0;0;0;0;8;0;1186;0;0;0;0;9;0;522;0;0;0;0
12.01.19;19:05:00;1;251;11991;0;2;0;131;0;0;0;0;3;0;230;0;0;0;0;4;0;95;0;0;0;0;5;0;219;2;0;0;0;0;0;6;0;19;2;0;0;0;0;0;7;0;1055;0;0;0;0;8;0;1186;0;0;0;0;9;0;522;0;0;0;0
12.01.19;19:00:00;1;280;11969;0;2;0;131;0;0;0;0;3;0;230;0;0;0;0;4;0;95;0;0;0;0;5;0;219;2;0;0;0;0;0;6;0;19;2;0;0;0;0;0;7;0;1055;0;0;0;0;8;0;1186;0;0;0;0;9;0;522;0;0;0;0
12.01.19;18:55:00;1;418;11946;0;2;0;131;0;0;0;0;3;0;230;0;0;0;0;4;0;95;0;0;0;0;5;0;219;2;0;0;0;0;0;6;0;19;2;0;0;0;0;0;7;0;1055;0;0;0;0;8;0;1186;0;0;0;0;9;0;522;0;0;0;0
12.01.19;18:50:00;1;647;11899;0;2;0;131;0;0;0;0;3;0;230;0;0;0;0;4;0;95;0;0;0;0;5;0;219;2;0;0;0;0;0;6;0;19;2;0;0;0;0;0;7;0;1055;0;0;0;0;8;0;1186;0;0;0;0;9;0;522;0;0;0;0
12.01.19;18:45:00;1;282;11873;0;2;0;131;0;0;0;0;3;0;230;0;0;0;0;4;0;95;0;0;0;0;5;0;219;2;0;0;0;0;0;6;0;19;2;0;0;0;0;0;7;0;1055;0;0;0;0;8;0;1186;0;0;0;0;9;0;522;0;0;0;0
12.01.19;18:40:00;1;282;11849;0;2;0;131;0;0;0;0;3;0;230;0;0;0;0;4;0;95;0;0;0;0;5;0;219;2;0;0;0;0;0;6;0;19;2;0;0;0;0;0;7;0;1055;0;0;0;0;8;0;1186;0;0;0;0;9;0;522;0;0;0;0
12.01.19;18:35:00;1;288;11826;0;2;0;131;0;0;0;0;3;0;230;0;0;0;0;4;0;95;0;0;0;0;5;0;219;2;0;0;0;0;0;6;0;19;2;0;0;0;0;0;7;0;1055;0;0;0;0;8;0;1186;0;0;0;0;9;0;522;0;0;0;0
12.01.19;18:30:00;1;268;11801;0;2;0;131;0;0;0;0;3;0;230;0;0;0;0;4;0;95;0;0;0;0;5;0;219;2;0;0;0;0;0;6;0;19;2;0;0;0;0;0;7;0;1055;0;0;0;0;8;0;1186;0;0;0;0;9;0;522;0;0;0;0
12.01.19;18:25:00;1;257;11778;0;2;0;131;0;0;0;0;3;0;230;0;0;0;0;4;0;95;0;0;0;0;5;0;219;2;0;0;0;0;0;6;0;19;2;0;0;0;0;0;7;0;1055;0;0;0;0;8;0;1186;0;0;0;0;9;0;522;0;0;0;0
12.01.19;18:20:00;1;254;11757;0;2;0;131;0;0;0;0;3;0;230;0;0;0;0;4;0;95;0;0;0;0;5;0;219;2;0;0;0;0;0;6;0;19;2;0;0;0;0;0;7;0;1055;0;0;0;0;8;0;1186;0;0;0;0;9;0;522;0;0;0;0
12.01.19;18:15:00;1;215;11735;0;2;0;131;0;0;0;0;3;0;230;0;0;0;0;4;0;95;0;0;0;0;5;0;219;2;0;0;0;0;0;6;0;19;2;0;0;0;0;0;7;0;1055;0;0;0;0;8;0;1186;0;0;0;0;9;0;522;0;0;0;0
12.01.19;18:10:00;1;417;11717;0;2;0;131;0;0;0;0;3;0;230;0;0;0;0;4;0;95;0;0;0;0;5;0;219;2;0;0;0;0;0;6;0;19;2;0;0;0;0;0;7;0;1055;0;0;0;0;8;0;1186;0;0;0;0;9;0;522;0;0;0;0
12.01.19;18:05:00;1;213;11673;0;2;0;131;0;0;0;0;3;0;230;0;0;0;0;4;0;95;0;0;0;0;5;0;219;2;0;0;0;0;0;6;0;19;2;0;0;0;0;0;7;0;1055;0;0;0;0;8;0;1186;0;0;0;0;9;0;522;0;0;0;0
12.01.19;18:00:00;1;213;11655;0;2;0;131;0;0;0;0;3;0;230;0;0;0;0;4;0;95;0;0;0;0;5;0;219;2;0;0;0;0;0;6;0;19;2;0;0;0;0;0;7;0;1055;0;0;0;0;8;0;1186;0;0;0;0;9;0;522;0;0;0;0
12.01.19;17:55:00;1;212;11637;0;2;0;131;0;0;0;0;3;0;230;0;0;0;0;4;0;95;0;0;0;0;5;0;219;2;0;0;0;0;0;6;0;19;2;0;0;0;0;0;7;0;1055;0;0;0;0;8;0;1186;0;0;0;0;9;0;522;0;0;0;0
12.01.19;17:50:00;1;213;11619;0;2;0;131;0;0;0;0;3;0;230;0;0;0;0;4;0;95;0;0;0;0;5;0;219;2;0;0;0;0;0;6;0;19;2;0;0;0;0;0;7;0;1055;0;0;0;0;8;0;1186;0;0;0;0;9;0;522;0;0;0;0
12.01.19;17:45:00;1;213;11601;0;2;0;131;0;0;0;0;3;0;230;0;0;0;0;4;0;95;0;0;0;0;5;0;219;2;0;0;0;0;0;6;0;19;2;0;0;0;0;0;7;0;1055;0;0;0;0;8;0;1186;0;0;0;0;9;0;522;0;0;0;0
12.01.19;17:40:00;1;213;11583;0;2;0;131;0;0;0;0;3;0;230;0;0;0;0;4;0;95;0;0;0;0;5;0;219;2;0;0;0;0;0;6;0;19;2;0;0;0;0;0;7;0;1055;0;0;0;0;8;0;1186;0;0;0;0;9;0;522;0;0;0;0
12.01.19;17:35:00;1;213;11566;0;2;0;131;0;0;0;0;3;0;230;0;0;0;0;4;0;95;0;0;0;0;5;0;219;2;0;0;0;0;0;6;0;19;2;0;0;0;0;0;7;0;1055;0;0;0;0;8;0;1186;0;0;0;0;9;0;522;0;0;0;0
12.01.19;17:30:00;1;430;11548;0;2;0;131;0;0;0;0;3;0;230;0;0;0;0;4;0;95;0;0;0;0;5;0;219;2;0;0;0;0;0;6;0;19;2;0;0;0;0;0;7;0;1055;0;0;0;0;8;0;1186;0;0;0;0;9;0;522;0;0;0;0
12.01.19;17:25:00;1;254;11500;0;2;0;131;0;0;0;0;3;0;230;0;0;0;0;4;0;95;0;0;0;0;5;0;219;2;0;0;0;0;0;6;0;19;2;0;0;0;0;0;7;0;1055;0;0;0;0;8;0;1186;0;0;0;0;9;0;522;0;0;0;0
12.01.19;17:20:00;1;258;11479;0;2;0;131;0;0;0;0;3;0;230;0;0;0;0;4;0;95;0;0;0;0;5;0;219;2;0;0;0;0;0;6;0;19;2;0;0;0;0;0;7;0;1055;0;0;0;0;8;0;1186;0;0;0;0;9;0;522;0;0;0;0
12.01.19;17:15:00;1;214;11457;0;2;0;131;0;0;0;0;3;0;230;0;0;0;0;4;0;95;0;0;0;0;5;0;219;2;0;0;0;0;0;6;0;19;2;0;0;0;0;0;7;0;1055;0;0;0;0;8;0;1186;0;0;0;0;9;0;522;0;0;0;0
12.01.19;17:10:00;1;215;11439;0;2;0;131;0;0;0;0;3;0;230;0;0;0;0;4;0;95;0;0;0;0;5;0;219;2;0;0;0;0;0;6;0;19;2;0;0;0;0;0;7;0;1055;0;0;0;0;8;0;1186;0;0;0;0;9;0;522;0;0;0;0
12.01.19;17:05:00;1;280;11420;0;2;0;131;0;0;0;0;3;0;230;0;0;0;0;4;0;95;0;0;0;0;5;0;219;2;0;0;0;0;0;6;0;19;2;0;0;0;0;0;7;0;1055;0;0;0;0;8;0;1186;0;0;0;0;9;0;522;0;0;0;0
12.01.19;17:00:00;1;280;11397;0;2;0;131;0;0;0;0;3;0;230;0;0;0;0;4;0;95;0;0;0;0;5;0;219;2;0;0;0;0;0;6;0;19;2;0;0;0;0;0;7;0;1055;0;0;0;0;8;0;1186;0;0;0;0;9;0;522;0;0;0;0
12.01.19;16:55:00;1;280;11374;0;2;0;131;0;0;0;0;3;0;230;0;0;41;1;4;0;95;0;0;0;0;5;0;219;2;0;0;0;0;0;6;0;19;2;0;0;0;0;0;7;0;1055;0;0;0;0;8;0;1186;0;0;0;0;9;0;522;0;0;0;0
12.01.19;16:50:00;1;449;11350;0;2;0;131;0;0;184;4;3;0;230;6;0;288;10;4;0;95;0;0;0;0;5;0;219;2;0;0;0;0;0;6;0;19;2;0;0;0;0;0;7;0;1055;0;0;0;0;8;0;1186;0;0;0;0;9;0;522;0;0;0;0
12.01.19;16:45:00;1;635;11314;0;2;0;131;6;0;279;6;3;0;230;6;0;312;10;4;0;95;0;0;0;0;5;0;219;2;0;0;0;0;0;6;0;19;2;0;0;0;0;0;7;0;1055;0;0;0;0;8;0;1186;0;0;0;0;9;0;522;0;0;0;0
12.01.19;16:40:00;1;618;11255;0;2;0;131;6;0;297;6;3;0;230;6;0;350;10;4;0;95;0;0;54;3;5;0;219;2;0;0;0;0;0;6;0;19;2;0;0;0;0;0;7;0;1055;0;0;0;0;8;0;1186;0;0;0;0;9;0;522;0;0;0;0
12.01.19;16:35:00;1;406;11219;0;2;0;131;6;0;317;6;3;0;230;6;0;380;10;4;0;95;1;0;93;5;5;0;219;2;0;0;0;0;0;6;0;19;2;0;0;0;0;0;7;0;1055;0;0;7;2;8;0;1186;0;0;49;2;9;0;522;0;0;104;2
12.01.19;16:30:00;1;361;11186;0;2;0;131;6;0;350;6;3;0;230;6;1;426;10;4;0;95;1;0;126;5;5;0;219;2;0;0;0;0;0;6;0;19;1;0;0;0;0;1;7;0;1055;6;0;286;10;8;0;1186;6;0;291;10;9;0;522;6;0;309;7
12.01.19;16:25:00;1;370;11155;0;2;0;131;6;0;379;6;3;0;230;6;2;456;10;4;0;95;1;0;168;5;5;0;219;2;0;1;116;114;9;6;0;19;0;4;3;136;178;10;7;0;1055;6;0;368;10;8;0;1186;6;0;374;10;9;0;522;6;0;399;7
12.01.19;16:20:00;1;373;11124;0;2;0;131;6;0;396;7;3;2;230;6;6;461;10;4;0;95;1;0;195;5;5;0;219;2;0;2;228;226;13;6;0;19;23;4;4;184;309;13;7;0;1055;6;0;408;10;8;0;1186;6;0;415;10;9;0;522;6;0;448;7
12.01.19;16:15:00;1;506;11093;0;2;0;131;6;0;395;7;3;1;230;6;3;482;10;4;0;95;1;0;192;6;5;0;219;2;0;0;202;228;13;6;0;19;23;6;5;180;392;14;7;0;1055;6;0;415;11;8;0;1186;6;0;421;10;9;0;522;4;0;439;7
12.01.19;16:10:00;1;524;11052;0;2;2;131;6;2;406;7;3;1;230;6;3;515;10;4;0;95;1;0;209;6;5;0;219;23;0;4;414;442;17;6;0;19;23;5;5;202;569;14;7;2;1055;4;5;436;11;8;2;1186;3;5;439;11;9;1;522;3;3;473;7
12.01.19;16:05:00;1;521;11008;0;2;3;131;6;8;398;7;3;1;230;4;6;518;11;4;0;95;3;0;222;6;5;0;219;23;0;2;424;483;17;6;0;19;23;4;5;182;583;14;7;2;1055;6;5;471;11;8;0;1186;6;4;469;11;9;0;522;6;4;520;7
12.01.19;16:00:00;1;521;10965;0;2;1;131;6;4;419;7;3;1;230;6;6;530;11;4;0;95;3;0;222;6;5;0;219;26;0;7;434;542;17;6;0;19;23;4;5;185;595;14;7;4;1054;6;14;460;11;8;4;1186;6;7;487;11;9;1;522;6;4;537;8
12.01.19;15:55:00;1;523;10921;0;2;2;130;6;6;420;7;3;3;230;6;8;533;11;4;0;95;3;0;239;6;5;10;219;1;1;10;415;471;17;6;0;19;23;4;6;270;518;14;7;7;1054;6;10;490;11;8;6;1186;6;12;483;11;9;5;522;6;13;508;8
12.01.19;15:50:00;1;519;10878;0;2;0;130;6;0;441;7;3;3;230;6;8;528;11;4;0;95;3;0;200;6;5;10;219;1;1;1;430;599;17;6;0;19;23;5;4;224;606;14;7;30;1054;6;48;410;11;8;41;1185;6;56;385;11;9;3;521;6;6;552;8
12.01.19;15:45:00;1;520;10835;0;2;9;130;3;17;406;7;3;4;229;6;10;538;11;4;0;95;3;0;243;6;5;0;218;26;0;2;443;647;17;6;0;19;23;4;5;271;522;14;7;44;1051;4;73;353;11;8;52;1182;4;74;358;11;9;5;521;4;9;546;8
12.01.19;15:40:00;1;1267;10791;0;2;3;129;6;7;428;7;3;3;229;6;8;547;11;4;2;95;3;2;200;6;5;4;218;4;0;3;441;587;17;6;0;19;23;5;5;182;607;14;7;50;1047;4;83;416;11;8;51;1177;4;85;424;12;9;10;520;3;15;533;8
12.01.19;15:35:00;1;524;10719;0;2;4;129;6;8;427;7;3;4;229;4;10;542;11;4;6;94;3;6;200;6;5;8;218;1;1;4;431;548;18;6;0;19;23;4;5;182;608;14;7;53;1043;4;89;443;11;8;64;1173;4;89;449;12;9;13;519;6;20;521;8
12.01.19;15:30:00;1;671;10675;0;2;2;129;6;6;433;7;3;13;228;3;29;499;11;4;1;94;3;1;200;6;5;22;217;1;2;3;429;654;18;6;0;19;23;4;5;254;612;14;7;59;1039;4;97;445;11;8;69;1168;4;96;427;12;9;6;518;6;9;562;8
12.01.19;15:25:00;1;629;10619;0;2;6;129;6;11;431;7;3;16;227;6;28;489;11;4;2;94;3;2;200;6;5;16;216;1;2;2;431;680;18;6;0;19;23;5;5;204;615;14;7;89;1034;4;117;421;11;8;88;1162;4;119;425;12;9;9;518;6;14;562;8
12.01.19;15:20:00;1;585;10567;0;2;46;128;6;64;371;8;3;61;226;4;91;400;11;4;24;94;3;25;200;6;5;22;215;1;5;4;431;684;18;6;0;19;23;3;4;502;624;15;7;134;1027;4;160;375;11;8;140;1155;4;173;435;12;9;65;517;6;85;508;8
12.01.19;15:15:00;1;589;10518;0;2;75;124;4;96;353;8;3;90;221;4;119;406;11;4;39;92;3;41;200;6;5;74;213;4;23;19;386;611;19;6;0;19;8;6;3;414;633;15;7;197;1016;4;236;416;11;8;213;1143;4;243;454;12;9;111;512;4;141;511;9
12.01.19;15:10:00;1;676;10468;0;2;89;118;4;109;355;8;3;109;213;4;140;404;11;4;52;88;3;54;200;6;5;81;207;4;29;19;386;611;19;6;0;19;1;5;3;461;637;15;7;245;1000;4;290;451;11;8;271;1125;4;303;459;12;9;143;503;4;169;516;9
12.01.19;15:05:00;1;704;10415;0;2;89;111;4;109;356;8;3;114;204;4;148;398;11;4;56;84;3;58;200;6;5;81;200;4;28;23;386;611;19;6;0;19;1;4;3;448;637;15;7;263;979;4;303;470;11;8;275;1103;4;325;465;12;9;149;491;4;180;522;9
12.01.19;15:00:00;1;746;10355;0;2;88;103;4;110;354;7;3;116;195;4;148;364;11;4;53;79;3;56;200;6;5;83;193;4;30;18;386;611;19;6;0;19;8;4;2;449;637;15;7;274;957;4;306;474;11;8;291;1080;4;328;480;12;9;161;478;4;187;515;9
12.01.19;14:55:00;1;936;10293;0;2;87;96;4;108;355;7;3;121;185;4;153;388;11;4;53;75;3;55;200;6;5;85;186;4;29;21;386;611;19;6;0;19;1;5;4;477;637;15;7;281;934;4;320;443;11;8;299;1056;4;339;464;12;9;164;465;4;191;509;9
12.01.19;14:50:00;1;756;10229;0;2;85;89;4;106;354;7;3;122;175;4;156;388;11;4;58;70;3;61;200;6;5;85;179;4;31;21;386;611;18;6;0;19;23;5;4;506;638;15;7;301;911;4;337;441;11;8;330;1031;4;359;467;12;9;179;451;4;203;515;9
12.01.19;14:45:00;1;2232;10150;0;2;84;81;4;104;353;7;3;123;165;4;155;387;11;4;55;65;3;57;200;6;5;84;172;4;32;26;386;611;18;6;0;19;23;8;6;489;638;15;7;327;886;4;347;416;11;8;345;1003;4;383;462;11;9;183;436;4;211;506;8
12.01.19;14:40:00;1;767;9950;0;2;90;74;4;113;356;7;3;137;154;4;169;384;11;4;63;61;3;66;200;6;5;89;165;4;36;24;386;611;18;6;0;19;8;6;5;526;640;14;7;342;859;4;394;439;11;8;403;974;4;431;477;11;9;209;421;4;242;502;8
12.01.19;14:35:00;1;771;9886;0;2;74;67;4;96;361;7;3;123;143;4;153;382;11;4;55;56;3;57;200;6;5;82;158;4;30;19;386;611;18;6;0;19;23;7;6;483;638;14;7;316;830;4;353;470;11;8;356;941;4;400;472;11;9;196;404;4;223;516;8
12.01.19;14:30:00;1;771;9822;0;2;59;61;4;79;355;7;3;101;133;4;129;363;11;4;44;51;3;46;200;6;5;71;151;4;23;15;386;611;18;6;0;19;23;5;3;447;632;14;7;273;803;4;304;450;11;8;304;912;4;337;473;11;9;160;388;4;189;513;8
12.01.19;14:25:00;1;614;9759;0;2;33;56;4;45;401;7;3;100;124;4;131;367;11;4;40;47;3;42;200;6;5;70;145;4;23;23;386;611;17;6;0;19;8;4;2;490;632;14;7;268;781;4;300;457;11;8;295;886;4;338;467;11;9;162;374;4;188;508;8
12.01.19;14:20:00;1;638;9709;0;2;7;53;6;11;448;7;3;86;116;4;118;379;11;4;33;44;3;34;200;6;5;11;139;23;3;7;442;703;17;6;0;19;1;3;3;518;628;14;7;250;758;4;284;423;11;8;281;861;4;311;474;11;9;152;360;4;176;501;8
12.01.19;14:15:00;1;957;9656;0;2;10;53;6;15;446;7;3;95;108;4;125;404;11;4;34;41;3;35;200;6;5;57;138;4;19;14;401;637;17;6;0;19;8;4;2;454;632;14;7;287;737;4;321;413;11;8;308;838;4;350;481;11;9;172;348;4;199;500;8
12.01.19;14:10:00;1;543;9590;0;2;8;52;6;11;442;7;3;89;101;4;118;401;11;4;26;38;3;26;200;5;5;11;133;1;3;4;443;704;17;6;0;19;8;5;4;511;630;14;7;276;714;4;309;427;11;8;299;812;4;340;492;11;9;170;334;4;196;509;8
12.01.19;14:05:00;1;543;9543;0;2;7;51;4;11;442;7;3;79;93;4;108;364;11;4;18;36;3;18;199;5;5;25;132;1;7;10;425;676;17;6;0;19;8;7;4;465;626;14;7;239;691;4;265;394;11;8;258;787;4;301;467;11;9;140;319;4;168;511;8
12.01.19;14:00:00;1;595;9495;0;2;61;50;4;83;354;7;3;126;86;4;156;350;11;4;46;34;3;48;200;5;5;87;130;4;33;21;387;615;18;6;0;19;23;8;4;483;638;15;7;342;671;4;378;389;11;8;397;766;4;436;456;11;9;211;307;4;240;491;8
12.01.19;13:55:00;1;578;9446;0;2;63;45;4;83;359;7;3;123;76;4;153;388;11;4;46;30;3;47;200;5;5;87;122;4;36;26;387;615;18;6;0;19;8;8;5;484;639;15;7;402;643;4;428;385;11;8;460;733;4;498;461;11;9;243;290;4;277;494;8
12.01.19;13:50:00;1;578;9398;0;2;52;40;4;72;357;7;3;102;66;4;131;415;11;4;41;27;3;43;199;5;5;84;115;4;29;23;387;615;18;6;0;19;8;4;4;558;635;15;7;356;609;4;386;386;11;8;412;695;4;452;469;11;9;222;270;4;251;482;8
12.01.19;13:45:00;1;578;9350;0;2;54;36;4;74;354;7;3;104;57;4;132;419;10;4;33;23;3;34;200;5;5;84;108;4;32;21;387;615;17;6;0;19;8;4;3;491;636;14;7;383;579;4;412;383;11;8;426;660;4;465;470;11;9;232;251;4;264;497;8
12.01.19;13:40:00;1;915;9301;0;2;12;31;3;19;433;7;3;83;49;4;114;429;10;4;13;20;3;13;199;5;5;23;101;4;6;8;439;698;17;6;0;19;8;4;3;502;631;14;7;351;548;4;377;374;11;8;386;625;4;429;479;11;9;218;232;4;245;490;8
12.01.19;13:35:00;1;2154;9215;0;2;18;30;6;27;423;7;3;74;42;4;102;395;10;4;28;19;3;30;199;5;5;76;100;4;27;26;383;606;18;6;0;19;8;5;3;457;631;15;7;332;518;4;354;364;10;8;367;593;4;399;463;11;9;192;214;4;226;470;7
12.01.19;13:30:00;1;2629;9006;0;2;50;29;4;72;354;7;3;87;35;4;114;369;10;4;33;17;3;35;199;4;5;87;93;4;35;31;383;606;17;6;0;19;1;5;3;512;636;14;7;399;491;4;424;399;10;8;444;562;4;487;449;11;9;238;198;4;269;459;7
12.01.19;13:25:00;1;2840;8782;0;2;53;25;4;74;354;7;3;89;28;4;119;354;10;4;28;14;3;29;200;4;5;93;86;4;39;29;383;606;17;6;11;19;23;14;18;588;600;14;7;441;458;4;474;370;10;8;514;525;4;548;457;11;9;267;178;4;301;452;7
12.01.19;13:20:00;1;2103;8549;0;2;51;20;4;74;356;6;3;91;21;4;119;361;10;4;30;12;3;31;199;4;5;95;78;4;41;30;383;606;17;6;55;18;4;21;25;467;448;15;7;438;421;4;473;363;10;8;494;483;4;535;445;10;9;266;156;4;296;444;7
12.01.19;13:15:00;1;765;8385;0;2;57;16;4;80;356;6;3;82;13;4;112;415;10;4;35;9;3;36;200;4;5;104;70;4;48;35;383;606;17;6;64;13;4;32;39;467;448;14;7;502;385;4;543;362;10;8;566;442;4;606;427;10;9;311;134;4;346;438;7
12.01.19;13:10:00;1;768;8316;0;2;41;11;4;60;374;6;3;11;6;4;15;590;10;4;20;7;3;21;200;4;5;100;62;4;44;34;383;606;17;6;39;7;4;6;7;509;514;13;7;471;343;4;501;358;10;8;518;395;4;554;433;10;9;264;108;4;293;406;7